Location: Asheville, NC
(35.6000°N, 82.5500°W)
Time: 15:57:26
(UTC-05:00)

Vanguard 1 Rocket - Pass Details

Date: 11 December 2017
Orbit: 656 x 4222 km, 34.3° (Epoch: 19 January)

Event Time Altitude Azimuth Distance (km) Brightness Sun altitude
Rises 14:58:12 0° 186° (S) 3,731 11.5 20.9°
Reaches altitude 10° 15:01:35 10° 165° (SSE) 3,182 10.8 20.5°
Maximum altitude 15:06:29 17° 127° (SE) 3,276 10.3 19.8°
Drops below altitude 10° 15:13:16 10° 92° (E) 4,676 10.7 18.9°
Sets 15:20:05 0° 76° (ENE) 6,486 11.3 18.0°
